date,time,SUV Intensity [MED/Hr],UV Index,Daily total [MED],Since Last [MED]
02/12/2022,00:03:19,0.000,0.0,0.0,0.0
02/12/2022,00:04:19,0.000,0.0,0.0,0.0
02/12/2022,00:05:19,-0.001,0.0,0.0,0.0
02/12/2022,00:06:19,-0.001,0.0,0.0,0.0
02/12/2022,00:07:19,0.000,0.0,0.0,0.0
02/12/2022,00:08:19,0.000,0.0,0.0,0.0
02/12/2022,00:09:19,-0.000,0.0,0.0,0.0
02/12/2022,00:10:19,0.000,0.0,0.0,0.0
02/12/2022,00:11:19,0.000,0.0,0.0,0.0
02/12/2022,00:12:19,0.000,0.0,0.0,0.0
02/12/2022,00:13:20,0.000,0.0,0.0,0.0
02/12/2022,00:14:19,0.000,0.0,0.0,0.0
02/12/2022,00:15:19,0.000,0.0,0.0,0.0
02/12/2022,00:16:19,-0.000,0.0,0.0,0.0
02/12/2022,00:17:19,-0.002,0.0,0.0,0.0
02/12/2022,00:18:19,0.000,0.0,0.0,0.0
02/12/2022,00:19:19,0.000,0.0,0.0,0.0
02/12/2022,00:20:19,0.000,0.0,0.0,0.0
02/12/2022,00:21:19,-0.001,0.0,0.0,0.0
02/12/2022,00:22:19,0.000,0.0,0.0,0.0
02/12/2022,00:23:19,0.001,0.0,0.0,0.0
02/12/2022,00:24:19,0.000,0.0,0.0,0.0
02/12/2022,00:25:19,0.000,0.0,0.0,0.0
02/12/2022,00:26:20,0.000,0.0,0.0,0.0
02/12/2022,00:27:19,0.000,0.0,0.0,0.0
02/12/2022,00:28:19,0.001,0.0,0.0,0.0
02/12/2022,00:29:19,0.000,0.0,0.0,0.0
02/12/2022,00:30:19,-0.001,0.0,0.0,0.0
02/12/2022,00:31:48,0.000,0.0,0.0,0.0
02/12/2022,00:33:19,0.000,0.0,0.0,0.0
02/12/2022,00:34:19,-0.001,0.0,0.0,0.0
02/12/2022,00:35:19,0.000,0.0,0.0,0.0
02/12/2022,00:36:20,0.000,0.0,0.0,0.0
02/12/2022,00:37:19,0.000,0.0,0.0,0.0
02/12/2022,00:38:19,0.001,0.0,0.0,0.0
02/12/2022,00:39:19,0.000,0.0,0.0,0.0
02/12/2022,00:40:19,0.001,0.0,0.0,0.0
02/12/2022,00:41:19,0.000,0.0,0.0,0.0
02/12/2022,00:42:19,0.000,0.0,0.0,0.0
02/12/2022,00:43:20,0.000,0.0,0.0,0.0
02/12/2022,00:44:19,-0.001,0.0,0.0,0.0
02/12/2022,00:45:19,0.000,0.0,0.0,0.0
02/12/2022,00:46:19,0.000,0.0,0.0,0.0
02/12/2022,00:47:19,0.000,0.0,0.0,0.0
02/12/2022,00:48:19,0.000,0.0,0.0,0.0
02/12/2022,00:49:19,0.000,0.0,0.0,0.0
02/12/2022,00:50:20,0.000,0.0,0.0,0.0
02/12/2022,00:51:19,0.000,0.0,0.0,0.0
02/12/2022,00:52:19,-0.000,0.0,0.0,0.0
02/12/2022,00:53:20,0.000,0.0,0.0,0.0
02/12/2022,00:54:19,-0.000,0.0,0.0,0.0
02/12/2022,00:55:19,-0.000,0.0,0.0,0.0
02/12/2022,00:56:19,-0.000,0.0,0.0,0.0
02/12/2022,00:57:19,0.000,0.0,0.0,0.0
02/12/2022,00:58:19,0.000,0.0,0.0,0.0
02/12/2022,00:59:19,0.000,0.0,0.0,0.0
02/12/2022,01:00:19,0.000,0.0,0.0,0.0
02/12/2022,01:01:19,-0.000,0.0,0.0,0.0
02/12/2022,01:02:20,0.001,0.0,0.0,0.0
02/12/2022,01:03:19,-0.001,0.0,0.0,0.0
02/12/2022,01:04:19,0.001,0.0,0.0,0.0
02/12/2022,01:05:19,0.001,0.0,0.0,0.0
02/12/2022,01:06:19,0.000,0.0,0.0,0.0
02/12/2022,01:07:20,0.000,0.0,0.0,0.0
02/12/2022,01:08:19,0.000,0.0,0.0,0.0
02/12/2022,01:09:19,0.000,0.0,0.0,0.0
02/12/2022,01:10:19,-0.001,0.0,0.0,0.0
02/12/2022,01:11:20,0.000,0.0,0.0,0.0
02/12/2022,01:12:20,0.001,0.0,0.0,0.0
02/12/2022,01:13:20,0.000,0.0,0.0,0.0
02/12/2022,01:14:20,0.001,0.0,0.0,0.0
02/12/2022,01:15:19,0.000,0.0,0.0,0.0
02/12/2022,01:16:20,-0.000,0.0,0.0,0.0
02/12/2022,01:17:19,0.001,0.0,0.0,0.0
02/12/2022,01:18:19,0.000,0.0,0.0,0.0
02/12/2022,01:19:19,0.000,0.0,0.0,0.0
02/12/2022,01:20:19,0.001,0.0,0.0,0.0
02/12/2022,01:21:19,0.000,0.0,0.0,0.0
02/12/2022,01:22:19,-0.001,0.0,0.0,0.0
02/12/2022,01:23:19,0.000,0.0,0.0,0.0
02/12/2022,01:24:20,0.000,0.0,0.0,0.0
02/12/2022,01:25:19,0.001,0.0,0.0,0.0
02/12/2022,01:26:19,0.000,0.0,0.0,0.0
02/12/2022,01:27:19,0.000,0.0,0.0,0.0
02/12/2022,01:28:19,0.000,0.0,0.0,0.0
02/12/2022,01:29:20,0.000,0.0,0.0,0.0
02/12/2022,01:30:19,0.000,0.0,0.0,0.0
02/12/2022,01:31:19,0.001,0.0,0.0,0.0
02/12/2022,01:32:20,0.000,0.0,0.0,0.0
02/12/2022,01:33:19,0.001,0.0,0.0,0.0
02/12/2022,01:34:19,0.000,0.0,0.0,0.0
02/12/2022,01:35:20,0.000,0.0,0.0,0.0
02/12/2022,01:36:19,-0.000,0.0,0.0,0.0
02/12/2022,01:37:20,0.000,0.0,0.0,0.0
02/12/2022,01:38:19,0.000,0.0,0.0,0.0
02/12/2022,01:39:19,0.000,0.0,0.0,0.0
02/12/2022,01:40:20,0.000,0.0,0.0,0.0
02/12/2022,01:41:20,0.000,0.0,0.0,0.0
02/12/2022,01:42:20,0.000,0.0,0.0,0.0
02/12/2022,01:43:19,0.000,0.0,0.0,0.0
02/12/2022,01:44:19,0.000,0.0,0.0,0.0
02/12/2022,01:45:20,0.000,0.0,0.0,0.0
02/12/2022,01:46:19,0.001,0.0,0.0,0.0
02/12/2022,01:47:20,-0.000,0.0,0.0,0.0
02/12/2022,01:48:19,0.000,0.0,0.0,0.0
02/12/2022,01:49:19,0.000,0.0,0.0,0.0
02/12/2022,01:50:20,-0.001,0.0,0.0,0.0
02/12/2022,01:51:19,0.000,0.0,0.0,0.0
02/12/2022,01:52:20,0.001,0.0,0.0,0.0
02/12/2022,01:53:19,0.000,0.0,0.0,0.0
02/12/2022,01:54:19,0.001,0.0,0.0,0.0
02/12/2022,01:55:19,0.001,0.0,0.0,0.0
02/12/2022,01:56:19,0.000,0.0,0.0,0.0
02/12/2022,01:57:19,0.000,0.0,0.0,0.0
02/12/2022,01:58:19,0.000,0.0,0.0,0.0
02/12/2022,01:59:20,0.000,0.0,0.0,0.0
02/12/2022,02:00:19,0.000,0.0,0.0,0.0
02/12/2022,02:01:19,-0.001,0.0,0.0,0.0
02/12/2022,02:02:19,0.001,0.0,0.0,0.0
02/12/2022,02:03:20,-0.000,0.0,0.0,0.0
02/12/2022,02:04:19,-0.000,0.0,0.0,0.0
02/12/2022,02:05:19,0.000,0.0,0.0,0.0
02/12/2022,02:06:19,0.000,0.0,0.0,0.0
02/12/2022,02:07:19,0.000,0.0,0.0,0.0
02/12/2022,02:08:19,0.000,0.0,0.0,0.0
02/12/2022,02:09:19,0.000,0.0,0.0,0.0
02/12/2022,02:10:19,0.000,0.0,0.0,0.0
02/12/2022,02:11:19,0.000,0.0,0.0,0.0
02/12/2022,02:12:19,0.000,0.0,0.0,0.0
02/12/2022,02:13:19,0.000,0.0,0.0,0.0
02/12/2022,02:14:19,0.001,0.0,0.0,0.0
02/12/2022,02:15:19,0.001,0.0,0.0,0.0
02/12/2022,02:16:20,0.000,0.0,0.0,0.0
02/12/2022,02:17:19,0.001,0.0,0.0,0.0
02/12/2022,02:18:20,0.000,0.0,0.0,0.0
02/12/2022,02:19:19,0.001,0.0,0.0,0.0
02/12/2022,02:20:19,0.000,0.0,0.0,0.0
02/12/2022,02:21:19,0.001,0.0,0.0,0.0
02/12/2022,02:22:19,-0.001,0.0,0.0,0.0
02/12/2022,02:23:19,0.001,0.0,0.0,0.0
02/12/2022,02:24:19,-0.001,0.0,0.0,0.0
02/12/2022,02:25:20,0.000,0.0,0.0,0.0
02/12/2022,02:26:19,0.000,0.0,0.0,0.0
02/12/2022,02:27:20,0.000,0.0,0.0,0.0
02/12/2022,02:28:19,0.000,0.0,0.0,0.0
02/12/2022,02:29:20,0.001,0.0,0.0,0.0
02/12/2022,02:30:19,-0.000,0.0,0.0,0.0
02/12/2022,02:31:20,0.001,0.0,0.0,0.0
02/12/2022,02:32:19,0.001,0.0,0.0,0.0
02/12/2022,02:33:19,-0.000,0.0,0.0,0.0
02/12/2022,02:34:20,0.000,0.0,0.0,0.0
02/12/2022,02:35:19,0.000,0.0,0.0,0.0
02/12/2022,02:36:18,0.000,0.0,0.0,0.0
02/12/2022,02:37:19,0.001,0.0,0.0,0.0
02/12/2022,02:38:20,0.001,0.0,0.0,0.0
02/12/2022,02:39:19,0.000,0.0,0.0,0.0
02/12/2022,02:40:19,0.000,0.0,0.0,0.0
02/12/2022,02:41:20,0.000,0.0,0.0,0.0
02/12/2022,02:42:19,0.001,0.0,0.0,0.0
02/12/2022,02:43:21,0.001,0.0,0.0,0.0
02/12/2022,02:44:19,0.001,0.0,0.0,0.0
02/12/2022,02:45:20,0.001,0.0,0.0,0.0
02/12/2022,02:46:19,0.000,0.0,0.0,0.0
02/12/2022,02:47:20,0.001,0.0,0.0,0.0
02/12/2022,02:48:19,0.001,0.0,0.0,0.0
02/12/2022,02:49:19,0.001,0.0,0.0,0.0
02/12/2022,02:50:20,-0.001,0.0,0.0,0.0
02/12/2022,02:51:19,0.001,0.0,0.0,0.0
02/12/2022,02:52:20,0.001,0.0,0.0,0.0
02/12/2022,02:53:20,0.001,0.0,0.0,0.0
02/12/2022,02:54:19,0.000,0.0,0.0,0.0
02/12/2022,02:55:20,0.001,0.0,0.0,0.0
02/12/2022,02:56:20,0.001,0.0,0.0,0.0
02/12/2022,02:57:19,0.000,0.0,0.0,0.0
02/12/2022,02:58:20,0.001,0.0,0.0,0.0
02/12/2022,02:59:19,0.000,0.0,0.0,0.0
02/12/2022,03:00:19,0.000,0.0,0.0,0.0
02/12/2022,03:01:19,0.001,0.0,0.0,0.0
02/12/2022,03:02:20,-0.000,0.0,0.0,0.0
02/12/2022,03:03:20,0.000,0.0,0.0,0.0
02/12/2022,03:04:20,0.001,0.0,0.0,0.0
02/12/2022,03:05:19,0.001,0.0,0.0,0.0
02/12/2022,03:06:19,0.001,0.0,0.0,0.0
02/12/2022,03:07:20,0.001,0.0,0.0,0.0
02/12/2022,03:08:20,0.001,0.0,0.0,0.0
02/12/2022,03:09:20,0.001,0.0,0.0,0.0
02/12/2022,03:10:19,0.000,0.0,0.0,0.0
02/12/2022,03:11:20,0.000,0.0,0.0,0.0
02/12/2022,03:12:20,0.001,0.0,0.0,0.0
02/12/2022,03:13:20,0.001,0.0,0.0,0.0
02/12/2022,03:14:19,0.000,0.0,0.0,0.0
02/12/2022,03:15:19,0.001,0.0,0.0,0.0
02/12/2022,03:16:19,0.001,0.0,0.0,0.0
02/12/2022,03:17:19,0.001,0.0,0.0,0.0
02/12/2022,03:18:50,0.000,0.0,0.0,0.0
02/12/2022,03:20:20,0.001,0.0,0.0,0.0
02/12/2022,03:21:19,0.001,0.0,0.0,0.0
02/12/2022,03:22:20,0.001,0.0,0.0,0.0
02/12/2022,03:23:20,0.001,0.0,0.0,0.0
02/12/2022,03:24:20,0.000,0.0,0.0,0.0
02/12/2022,03:25:20,0.001,0.0,0.0,0.0
02/12/2022,03:26:19,0.002,0.0,0.0,0.0
02/12/2022,03:27:20,0.001,0.0,0.0,0.0
02/12/2022,03:28:19,-0.000,0.0,0.0,0.0
02/12/2022,03:29:19,0.001,0.0,0.0,0.0
02/12/2022,03:30:19,0.002,0.0,0.0,0.0
02/12/2022,03:31:20,-0.000,0.0,0.0,0.0
02/12/2022,03:32:20,-0.000,0.0,0.0,0.0
02/12/2022,03:33:20,0.000,0.0,0.0,0.0
02/12/2022,03:34:20,0.001,0.0,0.0,0.0
02/12/2022,03:35:20,0.000,0.0,0.0,0.0
02/12/2022,03:36:20,0.000,0.0,0.0,0.0
02/12/2022,03:37:20,0.001,0.0,0.0,0.0
02/12/2022,03:38:20,0.001,0.0,0.0,0.0
02/12/2022,03:39:19,0.000,0.0,0.0,0.0
02/12/2022,03:40:23,0.001,0.0,0.0,0.0
02/12/2022,03:41:20,0.001,0.0,0.0,0.0
02/12/2022,03:42:19,0.001,0.0,0.0,0.0
02/12/2022,03:43:20,0.000,0.0,0.0,0.0
02/12/2022,03:44:20,0.001,0.0,0.0,0.0
02/12/2022,03:45:20,-0.001,0.0,0.0,0.0
02/12/2022,03:46:19,0.000,0.0,0.0,0.0
02/12/2022,03:47:19,0.001,0.0,0.0,0.0
02/12/2022,03:48:19,0.000,0.0,0.0,0.0
02/12/2022,03:49:20,0.000,0.0,0.0,0.0
02/12/2022,03:50:19,0.001,0.0,0.0,0.0
02/12/2022,03:51:20,0.001,0.0,0.0,0.0
02/12/2022,03:52:20,0.002,0.0,0.0,0.0
02/12/2022,03:53:20,0.001,0.0,0.0,0.0
02/12/2022,03:54:19,0.001,0.0,0.0,0.0
02/12/2022,03:55:20,0.001,0.0,0.0,0.0
02/12/2022,03:56:20,-0.001,0.0,0.0,0.0
02/12/2022,03:57:20,0.001,0.0,0.0,0.0
02/12/2022,03:58:20,0.002,0.0,0.0,0.0
02/12/2022,03:59:19,0.000,0.0,0.0,0.0
02/12/2022,04:00:21,0.001,0.0,0.0,0.0
02/12/2022,04:01:20,0.001,0.0,0.0,0.0
02/12/2022,04:02:19,0.000,0.0,0.0,0.0
02/12/2022,04:03:20,0.001,0.0,0.0,0.0
02/12/2022,04:04:20,0.000,0.0,0.0,0.0
02/12/2022,04:05:19,0.000,0.0,0.0,0.0
02/12/2022,04:06:20,0.002,0.0,0.0,0.0
02/12/2022,04:07:20,0.001,0.0,0.0,0.0
02/12/2022,04:08:20,0.001,0.0,0.0,0.0
02/12/2022,04:09:19,0.000,0.0,0.0,0.0
02/12/2022,04:10:20,0.001,0.0,0.0,0.0
02/12/2022,04:11:20,0.001,0.0,0.0,0.0
02/12/2022,04:12:20,0.001,0.0,0.0,0.0
02/12/2022,04:13:20,0.001,0.0,0.0,0.0
02/12/2022,04:14:20,0.001,0.0,0.0,0.0
02/12/2022,04:15:19,0.001,0.0,0.0,0.0
02/12/2022,04:16:19,0.001,0.0,0.0,0.0
02/12/2022,04:17:20,0.001,0.0,0.0,0.0
02/12/2022,04:18:49,0.002,0.0,0.0,0.0
02/12/2022,04:20:20,0.001,0.0,0.0,0.0
02/12/2022,04:21:19,0.001,0.0,0.0,0.0
02/12/2022,04:22:20,0.000,0.0,0.0,0.0
02/12/2022,04:23:20,0.001,0.0,0.0,0.0
02/12/2022,04:24:20,0.001,0.0,0.0,0.0
02/12/2022,04:25:20,0.002,0.0,0.0,0.0
02/12/2022,04:26:20,0.001,0.0,0.0,0.0
02/12/2022,04:27:20,0.001,0.0,0.0,0.0
02/12/2022,04:28:20,0.001,0.0,0.0,0.0
02/12/2022,04:29:20,0.001,0.0,0.0,0.0
02/12/2022,04:30:20,0.001,0.0,0.0,0.0
02/12/2022,04:31:20,0.000,0.0,0.0,0.0
02/12/2022,04:32:20,0.001,0.0,0.0,0.0
02/12/2022,04:33:20,0.001,0.0,0.0,0.0
02/12/2022,04:34:20,0.002,0.0,0.0,0.0
02/12/2022,04:35:20,-0.000,0.0,0.0,0.0
02/12/2022,04:36:20,0.001,0.0,0.0,0.0
02/12/2022,04:37:20,0.001,0.0,0.0,0.0
02/12/2022,04:38:20,0.001,0.0,0.0,0.0
02/12/2022,04:39:19,0.001,0.0,0.0,0.0
02/12/2022,04:40:19,0.000,0.0,0.0,0.0
02/12/2022,04:41:20,0.000,0.0,0.0,0.0
02/12/2022,04:42:20,0.002,0.0,0.0,0.0
02/12/2022,04:43:20,-0.000,0.0,0.0,0.0
02/12/2022,04:44:20,0.001,0.0,0.0,0.0
02/12/2022,04:45:19,0.000,0.0,0.0,0.0
02/12/2022,04:46:20,0.001,0.0,0.0,0.0
02/12/2022,04:47:20,0.000,0.0,0.0,0.0
02/12/2022,04:48:20,0.001,0.0,0.0,0.0
02/12/2022,04:49:20,0.002,0.0,0.0,0.0
02/12/2022,04:50:20,0.002,0.0,0.0,0.0
02/12/2022,04:51:19,0.001,0.0,0.0,0.0
02/12/2022,04:52:20,0.001,0.0,0.0,0.0
02/12/2022,04:53:20,0.001,0.0,0.0,0.0
02/12/2022,04:54:20,0.001,0.0,0.0,0.0
02/12/2022,04:55:19,0.001,0.0,0.0,0.0
02/12/2022,04:56:19,0.001,0.0,0.0,0.0
02/12/2022,04:57:20,0.001,0.0,0.0,0.0
02/12/2022,04:58:20,0.001,0.0,0.0,0.0
02/12/2022,04:59:20,0.001,0.0,0.0,0.0
02/12/2022,05:00:20,-0.000,0.0,0.0,0.0
02/12/2022,05:01:20,0.001,0.0,0.0,0.0
02/12/2022,05:02:20,0.001,0.0,0.0,0.0
02/12/2022,05:03:20,0.000,0.0,0.0,0.0
02/12/2022,05:04:20,0.001,0.0,0.0,0.0
02/12/2022,05:05:20,0.001,0.0,0.0,0.0
02/12/2022,05:06:20,0.001,0.0,0.0,0.0
02/12/2022,05:07:20,0.001,0.0,0.0,0.0
02/12/2022,05:08:20,0.001,0.0,0.0,0.0
02/12/2022,05:09:20,0.001,0.0,0.0,0.0
02/12/2022,05:10:20,0.001,0.0,0.0,0.0
02/12/2022,05:11:20,0.001,0.0,0.0,0.0
02/12/2022,05:12:20,0.001,0.0,0.0,0.0
02/12/2022,05:13:19,0.000,0.0,0.0,0.0
02/12/2022,05:14:20,0.000,0.0,0.0,0.0
02/12/2022,05:15:20,0.001,0.0,0.0,0.0
02/12/2022,05:16:20,0.003,0.0,0.0,0.0
02/12/2022,05:17:20,0.002,0.0,0.0,0.0
02/12/2022,05:18:20,0.001,0.0,0.0,0.0
02/12/2022,05:19:20,0.001,0.0,0.0,0.0
02/12/2022,05:20:19,0.001,0.0,0.0,0.0
02/12/2022,05:21:20,0.002,0.0,0.0,0.0
02/12/2022,05:22:20,0.001,0.0,0.0,0.0
02/12/2022,05:23:20,0.001,0.0,0.0,0.0
02/12/2022,05:24:19,0.001,0.0,0.0,0.0
02/12/2022,05:25:21,0.000,0.0,0.0,0.0
02/12/2022,05:26:19,0.000,0.0,0.0,0.0
02/12/2022,05:27:20,0.001,0.0,0.0,0.0
02/12/2022,05:28:20,0.001,0.0,0.0,0.0
02/12/2022,05:29:20,0.001,0.0,0.0,0.0
02/12/2022,05:30:20,0.001,0.0,0.0,0.0
02/12/2022,05:31:20,0.002,0.0,0.0,0.0
02/12/2022,05:32:20,0.001,0.0,0.0,0.0
02/12/2022,05:33:20,0.001,0.0,0.0,0.0
02/12/2022,05:34:20,0.001,0.0,0.0,0.0
02/12/2022,05:35:20,0.001,0.0,0.0,0.0
02/12/2022,05:36:20,0.000,0.0,0.0,0.0
02/12/2022,05:37:20,0.001,0.0,0.0,0.0
02/12/2022,05:38:20,0.002,0.0,0.0,0.0
02/12/2022,05:39:20,0.001,0.0,0.0,0.0
02/12/2022,05:40:20,0.001,0.0,0.0,0.0
02/12/2022,05:41:20,0.001,0.0,0.0,0.0
02/12/2022,05:42:20,0.001,0.0,0.0,0.0
02/12/2022,05:43:20,0.001,0.0,0.0,0.0
02/12/2022,05:44:20,0.001,0.0,0.0,0.0
02/12/2022,05:45:20,0.000,0.0,0.0,0.0
02/12/2022,05:46:19,-0.000,0.0,0.0,0.0
02/12/2022,05:47:20,0.001,0.0,0.0,0.0
02/12/2022,05:48:19,0.001,0.0,0.0,0.0
02/12/2022,05:49:20,-0.000,0.0,0.0,0.0
02/12/2022,05:50:20,0.002,0.0,0.0,0.0
02/12/2022,05:51:20,0.001,0.0,0.0,0.0
02/12/2022,05:52:19,0.001,0.0,0.0,0.0
02/12/2022,05:53:19,0.000,0.0,0.0,0.0
02/12/2022,05:54:20,0.000,0.0,0.0,0.0
02/12/2022,05:55:19,0.001,0.0,0.0,0.0
02/12/2022,05:56:20,0.001,0.0,0.0,0.0
02/12/2022,05:57:19,0.000,0.0,0.0,0.0
02/12/2022,05:58:19,0.001,0.0,0.0,0.0
02/12/2022,05:59:20,0.001,0.0,0.0,0.0
02/12/2022,06:00:19,0.001,0.0,0.0,0.0
02/12/2022,06:01:20,0.000,0.0,0.0,0.0
02/12/2022,06:02:20,0.001,0.0,0.0,0.0
02/12/2022,06:03:20,0.001,0.0,0.0,0.0
02/12/2022,06:04:20,0.001,0.0,0.0,0.0
02/12/2022,06:05:20,0.001,0.0,0.0,0.0
02/12/2022,06:06:20,0.001,0.0,0.0,0.0
02/12/2022,06:07:19,0.001,0.0,0.0,0.0
02/12/2022,06:08:20,0.001,0.0,0.0,0.0
02/12/2022,06:09:19,0.001,0.0,0.0,0.0
02/12/2022,06:10:19,0.001,0.0,0.0,0.0
02/12/2022,06:11:20,0.001,0.0,0.0,0.0
02/12/2022,06:12:20,0.000,0.0,0.0,0.0
02/12/2022,06:13:20,0.001,0.0,0.0,0.0
02/12/2022,06:14:21,0.001,0.0,0.0,0.0
02/12/2022,06:15:21,0.001,0.0,0.0,0.0
02/12/2022,06:16:19,0.001,0.0,0.0,0.0
02/12/2022,06:17:20,0.001,0.0,0.0,0.0
02/12/2022,06:18:20,0.001,0.0,0.0,0.0
02/12/2022,06:19:20,-0.000,0.0,0.0,0.0
02/12/2022,06:20:20,-0.000,0.0,0.0,0.0
02/12/2022,06:21:20,0.001,0.0,0.0,0.0
02/12/2022,06:22:20,0.001,0.0,0.0,0.0
02/12/2022,06:23:20,0.001,0.0,0.0,0.0
02/12/2022,06:24:20,0.001,0.0,0.0,0.0
02/12/2022,06:25:20,0.000,0.0,0.0,0.0
02/12/2022,06:26:20,0.001,0.0,0.0,0.0
02/12/2022,06:27:19,0.001,0.0,0.0,0.0
02/12/2022,06:28:20,0.001,0.0,0.0,0.0
02/12/2022,06:29:20,0.001,0.0,0.0,0.0
02/12/2022,06:30:20,0.002,0.0,0.0,0.0
02/12/2022,06:31:20,0.001,0.0,0.0,0.0
02/12/2022,06:32:20,-0.000,0.0,0.0,0.0
02/12/2022,06:33:20,0.001,0.0,0.0,0.0
02/12/2022,06:34:20,0.001,0.0,0.0,0.0
02/12/2022,06:35:20,0.001,0.0,0.0,0.0
02/12/2022,06:36:20,-0.000,0.0,0.0,0.0
02/12/2022,06:37:20,0.001,0.0,0.0,0.0
02/12/2022,06:38:20,0.001,0.0,0.0,0.0
02/12/2022,06:39:20,0.001,0.0,0.0,0.0
02/12/2022,06:40:20,0.001,0.0,0.0,0.0
02/12/2022,06:41:20,0.001,0.0,0.0,0.0
02/12/2022,06:42:20,0.001,0.0,0.0,0.0
02/12/2022,06:43:20,0.001,0.0,0.0,0.0
02/12/2022,06:44:20,0.000,0.0,0.0,0.0
02/12/2022,06:45:20,0.000,0.0,0.0,0.0
02/12/2022,06:46:20,0.000,0.0,0.0,0.0
02/12/2022,06:47:20,0.001,0.0,0.0,0.0
02/12/2022,06:48:20,0.000,0.0,0.0,0.0
02/12/2022,06:49:20,0.001,0.0,0.0,0.0
02/12/2022,06:50:20,0.001,0.0,0.0,0.0
02/12/2022,06:51:20,0.001,0.0,0.0,0.0
02/12/2022,06:52:20,0.000,0.0,0.0,0.0
02/12/2022,06:53:19,0.001,0.0,0.0,0.0
02/12/2022,06:54:20,-0.000,0.0,0.0,0.0
02/12/2022,06:55:20,0.002,0.0,0.0,0.0
02/12/2022,06:56:20,0.001,0.0,0.0,0.0
02/12/2022,06:57:20,0.001,0.0,0.0,0.0
02/12/2022,06:58:20,-0.000,0.0,0.0,0.0
02/12/2022,06:59:20,0.001,0.0,0.0,0.0
02/12/2022,07:00:20,0.001,0.0,0.0,0.0
02/12/2022,07:01:20,0.001,0.0,0.0,0.0
02/12/2022,07:02:20,0.002,0.0,0.0,0.0
02/12/2022,07:03:20,-0.000,0.0,0.0,0.0
02/12/2022,07:04:20,0.001,0.0,0.0,0.0
02/12/2022,07:05:19,0.000,0.0,0.0,0.0
02/12/2022,07:06:20,0.001,0.0,0.0,0.0
02/12/2022,07:07:19,0.001,0.0,0.0,0.0
02/12/2022,07:08:20,0.001,0.0,0.0,0.0
02/12/2022,07:09:19,0.001,0.0,0.0,0.0
02/12/2022,07:10:19,0.001,0.0,0.0,0.0
02/12/2022,07:11:21,0.000,0.0,0.0,0.0
02/12/2022,07:12:21,0.000,0.0,0.0,0.0
02/12/2022,07:13:20,0.001,0.0,0.0,0.0
02/12/2022,07:14:20,0.001,0.0,0.0,0.0
02/12/2022,07:15:20,0.001,0.0,0.0,0.0
02/12/2022,07:16:20,0.002,0.0,0.0,0.0
02/12/2022,07:17:20,0.000,0.0,0.0,0.0
02/12/2022,07:18:20,0.001,0.0,0.0,0.0
02/12/2022,07:19:20,0.000,0.0,0.0,0.0
02/12/2022,07:20:20,0.000,0.0,0.0,0.0
02/12/2022,07:21:20,0.001,0.0,0.0,0.0
02/12/2022,07:22:20,0.001,0.0,0.0,0.0
02/12/2022,07:23:21,0.001,0.0,0.0,0.0
02/12/2022,07:24:20,0.001,0.0,0.0,0.0
02/12/2022,07:25:20,0.001,0.0,0.0,0.0
02/12/2022,07:26:20,0.001,0.0,0.0,0.0
02/12/2022,07:27:20,0.001,0.0,0.0,0.0
02/12/2022,07:28:20,0.001,0.0,0.0,0.0
02/12/2022,07:29:20,0.001,0.0,0.0,0.0
02/12/2022,07:30:20,-0.000,0.0,0.0,0.0
02/12/2022,07:31:20,0.000,0.0,0.0,0.0
02/12/2022,07:32:20,0.001,0.0,0.0,0.0
02/12/2022,07:33:20,0.001,0.0,0.0,0.0
02/12/2022,07:34:20,0.001,0.0,0.0,0.0
02/12/2022,07:35:20,0.001,0.0,0.0,0.0
02/12/2022,07:36:20,0.001,0.0,0.0,0.0
02/12/2022,07:37:20,0.002,0.0,0.0,0.0
02/12/2022,07:38:20,0.001,0.0,0.0,0.0
02/12/2022,07:39:20,0.001,0.0,0.0,0.0
02/12/2022,07:40:20,0.002,0.0,0.0,0.0
02/12/2022,07:41:20,0.001,0.0,0.0,0.0
02/12/2022,07:42:20,0.000,0.0,0.0,0.0
02/12/2022,07:43:20,0.001,0.0,0.0,0.0
02/12/2022,07:44:20,0.000,0.0,0.0,0.0
02/12/2022,07:45:20,0.001,0.0,0.0,0.0
02/12/2022,07:46:20,0.001,0.0,0.0,0.0
02/12/2022,07:47:20,0.002,0.0,0.0,0.0
02/12/2022,07:48:20,0.001,0.0,0.0,0.0
02/12/2022,07:49:20,0.001,0.0,0.0,0.0
02/12/2022,07:50:19,0.002,0.0,0.0,0.0
02/12/2022,07:51:20,0.002,0.0,0.0,0.0
02/12/2022,07:52:20,0.001,0.0,0.0,0.0
02/12/2022,07:53:20,0.003,0.0,0.0,0.0
02/12/2022,07:54:20,0.002,0.0,0.0,0.0
02/12/2022,07:55:20,0.002,0.0,0.0,0.0
02/12/2022,07:56:20,0.002,0.0,0.0,0.0
02/12/2022,07:57:20,0.002,0.0,0.0,0.0
02/12/2022,07:58:20,0.002,0.0,0.0,0.0
02/12/2022,07:59:20,0.003,0.0,0.0,0.0
02/12/2022,08:00:21,0.003,0.0,0.0,0.0
02/12/2022,08:01:20,0.003,0.0,0.0,0.0
02/12/2022,08:02:21,0.003,0.0,0.0,0.0
02/12/2022,08:03:20,0.003,0.0,0.0,0.0
02/12/2022,08:04:20,0.003,0.0,0.0,0.0
02/12/2022,08:05:20,0.003,0.0,0.0,0.0
02/12/2022,08:06:20,0.004,0.0,0.0,0.0
02/12/2022,08:07:20,0.004,0.0,0.0,0.0
02/12/2022,08:08:20,0.004,0.0,0.0,0.0
02/12/2022,08:09:20,0.004,0.0,0.0,0.0
02/12/2022,08:10:20,0.003,0.0,0.0,0.0
02/12/2022,08:11:20,0.005,0.0,0.0,0.0
02/12/2022,08:12:20,0.004,0.0,0.0,0.0
02/12/2022,08:13:20,0.004,0.0,0.0,0.0
02/12/2022,08:14:20,0.004,0.0,0.0,0.0
02/12/2022,08:15:20,0.005,0.0,0.0,0.0
02/12/2022,08:16:20,0.005,0.0,0.0,0.0
02/12/2022,08:17:20,0.006,0.0,0.0,0.0
02/12/2022,08:18:20,0.006,0.0,0.0,0.0
02/12/2022,08:19:20,0.006,0.0,0.0,0.0
02/12/2022,08:20:20,0.007,0.0,0.0,0.0
02/12/2022,08:21:20,0.008,0.0,0.0,0.0
02/12/2022,08:22:20,0.008,0.0,0.0,0.0
02/12/2022,08:23:20,0.008,0.0,0.001,0.001
02/12/2022,08:24:20,0.008,0.0,0.001,0.0
02/12/2022,08:25:20,0.007,0.0,0.001,0.0
02/12/2022,08:26:20,0.007,0.0,0.001,0.0
02/12/2022,08:27:20,0.008,0.0,0.001,0.0
02/12/2022,08:28:20,0.008,0.0,0.001,0.0
02/12/2022,08:29:20,0.008,0.0,0.001,0.0
02/12/2022,08:30:21,0.008,0.0,0.001,0.0
02/12/2022,08:31:49,0.008,0.0,0.002,0.001
02/12/2022,08:33:20,0.010,0.0,0.002,0.0
02/12/2022,08:34:20,0.010,0.0,0.002,0.0
02/12/2022,08:35:20,0.010,0.0,0.002,0.0
02/12/2022,08:36:20,0.011,0.0,0.002,0.0
02/12/2022,08:37:20,0.010,0.0,0.003,0.001
02/12/2022,08:38:20,0.011,0.0,0.003,0.0
02/12/2022,08:39:20,0.011,0.0,0.003,0.0
02/12/2022,08:40:20,0.012,0.0,0.003,0.0
02/12/2022,08:41:42,0.013,0.0,0.003,0.0
02/12/2022,08:42:20,0.014,0.0,0.004,0.001
02/12/2022,08:43:20,0.014,0.0,0.004,0.0
02/12/2022,08:44:20,0.013,0.0,0.004,0.0
02/12/2022,08:45:20,0.013,0.0,0.004,0.0
02/12/2022,08:46:20,0.012,0.0,0.004,0.0
02/12/2022,08:47:20,0.014,0.0,0.005,0.001
02/12/2022,08:48:20,0.014,0.0,0.005,0.0
02/12/2022,08:49:20,0.015,0.0,0.005,0.0
02/12/2022,08:50:20,0.016,0.0,0.005,0.0
02/12/2022,08:51:20,0.016,0.0,0.006,0.001
02/12/2022,08:52:20,0.015,0.0,0.006,0.0
02/12/2022,08:53:21,0.015,0.0,0.006,0.0
02/12/2022,08:54:20,0.015,0.0,0.006,0.0
02/12/2022,08:55:20,0.015,0.0,0.007,0.001
02/12/2022,08:56:20,0.015,0.0,0.007,0.0
02/12/2022,08:57:20,0.016,0.0,0.007,0.0
02/12/2022,08:58:20,0.018,0.0,0.007,0.0
02/12/2022,08:59:20,0.019,0.0,0.008,0.001
02/12/2022,09:00:20,0.018,0.0,0.008,0.0
02/12/2022,09:01:21,0.019,0.0,0.008,0.0
02/12/2022,09:02:20,0.019,0.0,0.009,0.001
02/12/2022,09:03:20,0.020,0.0,0.009,0.0
02/12/2022,09:04:20,0.022,0.0,0.009,0.0
02/12/2022,09:05:20,0.023,0.0,0.01,0.001
02/12/2022,09:06:20,0.023,0.0,0.01,0.0
02/12/2022,09:07:21,0.023,0.0,0.01,0.0
02/12/2022,09:08:21,0.024,0.0,0.011,0.001
02/12/2022,09:09:20,0.024,0.0,0.011,0.0
02/12/2022,09:10:21,0.024,0.0,0.012,0.001
02/12/2022,09:11:20,0.025,0.0,0.012,0.0
02/12/2022,09:12:20,0.026,0.0,0.012,0.0
02/12/2022,09:13:21,0.026,0.0,0.013,0.001
02/12/2022,09:14:20,0.027,0.0,0.013,0.0
02/12/2022,09:15:21,0.028,0.0,0.014,0.001
02/12/2022,09:16:20,0.029,0.0,0.014,0.0
02/12/2022,09:17:20,0.029,0.0,0.015,0.001
02/12/2022,09:18:20,0.030,0.0,0.015,0.0
02/12/2022,09:19:20,0.029,0.0,0.016,0.001
02/12/2022,09:20:20,0.029,0.0,0.016,0.0
02/12/2022,09:21:20,0.031,0.0,0.017,0.001
02/12/2022,09:22:20,0.031,0.0,0.017,0.0
02/12/2022,09:23:20,0.032,0.0,0.018,0.001
02/12/2022,09:24:20,0.031,0.0,0.018,0.0
02/12/2022,09:25:20,0.033,0.0,0.019,0.001
02/12/2022,09:26:21,0.034,0.0,0.019,0.0
02/12/2022,09:27:20,0.035,0.0,0.02,0.001
02/12/2022,09:28:21,0.035,0.0,0.021,0.001
02/12/2022,09:29:20,0.034,0.0,0.021,0.0
02/12/2022,09:30:20,0.036,0.0,0.022,0.001
02/12/2022,09:31:20,0.037,0.0,0.022,0.0
02/12/2022,09:32:20,0.035,0.0,0.023,0.001
02/12/2022,09:33:20,0.038,0.0,0.024,0.001
02/12/2022,09:34:20,0.041,0.0,0.024,0.0
02/12/2022,09:35:21,0.038,0.0,0.025,0.001
02/12/2022,09:36:20,0.039,0.0,0.025,0.0
02/12/2022,09:37:21,0.041,0.0,0.026,0.001
02/12/2022,09:38:20,0.044,0.0,0.027,0.001
02/12/2022,09:39:20,0.044,0.0,0.028,0.001
02/12/2022,09:40:20,0.041,0.0,0.028,0.0
02/12/2022,09:41:20,0.043,0.0,0.029,0.001
02/12/2022,09:42:20,0.047,0.0,0.03,0.001
02/12/2022,09:43:21,0.048,0.0,0.031,0.001
02/12/2022,09:44:21,0.048,0.0,0.031,0.0
02/12/2022,09:45:21,0.049,0.0,0.032,0.001
02/12/2022,09:46:20,0.050,0.0,0.033,0.001
02/12/2022,09:47:20,0.054,0.0,0.034,0.001
02/12/2022,09:48:20,0.054,0.0,0.035,0.001
02/12/2022,09:49:20,0.054,0.0,0.036,0.001
02/12/2022,09:50:20,0.056,0.0,0.037,0.001
02/12/2022,09:51:21,0.055,0.0,0.038,0.001
02/12/2022,09:52:20,0.060,0.0,0.038,0.0
02/12/2022,09:53:21,0.059,0.0,0.039,0.001
02/12/2022,09:54:20,0.060,0.0,0.04,0.001
02/12/2022,09:55:20,0.062,0.0,0.041,0.001
02/12/2022,09:56:20,0.061,0.0,0.042,0.001
02/12/2022,09:57:21,0.060,0.0,0.044,0.002
02/12/2022,09:58:20,0.061,0.0,0.045,0.001
02/12/2022,09:59:21,0.060,0.0,0.046,0.001
02/12/2022,10:00:20,0.061,0.0,0.047,0.001
02/12/2022,10:01:20,0.061,0.0,0.048,0.001
02/12/2022,10:02:20,0.063,0.0,0.049,0.001
02/12/2022,10:03:20,0.064,0.0,0.05,0.001
02/12/2022,10:04:20,0.065,0.0,0.051,0.001
02/12/2022,10:05:20,0.063,0.0,0.052,0.001
02/12/2022,10:06:21,0.062,0.0,0.053,0.001
02/12/2022,10:07:20,0.059,0.0,0.054,0.001
02/12/2022,10:08:20,0.058,0.0,0.055,0.001
02/12/2022,10:09:20,0.060,0.0,0.056,0.001
02/12/2022,10:10:20,0.059,0.0,0.057,0.001
02/12/2022,10:11:20,0.060,0.0,0.058,0.001
02/12/2022,10:12:20,0.056,0.0,0.059,0.001
02/12/2022,10:13:20,0.056,0.0,0.06,0.001
02/12/2022,10:14:21,0.060,0.0,0.061,0.001
02/12/2022,10:15:21,0.064,0.0,0.062,0.001
02/12/2022,10:16:21,0.064,0.0,0.063,0.001
02/12/2022,10:17:20,0.066,0.0,0.064,0.001
02/12/2022,10:18:20,0.067,0.0,0.065,0.001
02/12/2022,10:19:21,0.070,0.0,0.066,0.001
02/12/2022,10:20:22,0.082,0.0,0.067,0.001
02/12/2022,10:21:21,0.075,0.0,0.069,0.002
02/12/2022,10:22:20,0.073,0.0,0.07,0.001
02/12/2022,10:23:20,0.071,0.0,0.071,0.001
02/12/2022,10:24:20,0.071,0.0,0.072,0.001